Погода в Подволошино

Россия / Иркутская область     58°14′53″N   108°25′44″E
темп.,
°C
ветер,
м/с
пор.,
м/с
влажн.,
%
обл.,
%
осадки,
мм/ч
давл.,
гПа
погр.,
м
13 мая, чт
чт1323:000с2899100 0.3 1017540
02:00+1с389793 1.0 1017462
05:000с399088 0.0 1017308
08:00+4ссв486728 0.0 1018708
11:00+7ссв4751100 0.0 10171836
14:00+10св3640100 0.0 10162096
17:00+12ссв353186 0.0 10152410
20:00+8с234314 0.0 101655
14 мая, пт
пт1423:00+4ссз11575 0.0 101811
02:00+2ссз11635 0.0 101910
05:00+1з00654 0.0 101910
08:00+8зюз11435 0.0 1018329
11:00+13юз22305 0.0 10161945
14:00+15юз23255 0.0 10132337
17:00+15юз33245 0.0 10112485
20:00+12ю22375 0.0 101125
15 мая, сб
сб1523:00+6ю22506 0.0 101120
02:00+4ююв225736 0.0 101012
05:00+3ююв2264100 0.0 100839
08:00+9юз61144100 0.0 10071026
11:00+4зюз61095100 1.8 1008881
14:00+7зюз595397 2.7 10081822
17:00+9зюз6104098 0.3 10062535
20:00+4ююз51189100 0.6 1005963
16 мая, вс
вс1623:00+4зюз61296100 1.4 1003997
02:00+3зюз51093100 1.9 1003954
05:00+2з5108267 0.2 10041023
08:00+4з5106358 0.4 10051494
11:00+6зсз6936100 0.1 10062443
14:00+8сз6930100 0.1 10072815
17:00+9сз61026100 0.0 10062780
20:00+6сз3639100 0.0 1007376
17 мая, пн
пн1723:00+2з1150100 0.0 100810
02:00+1юз1155100 0.0 100812
05:000з2662100 0.0 1008139
08:00+5зсз4831100 0.0 10071629
11:00+7зсз5824100 0.0 10062968
14:00+10зсз5819100 0.0 10033250
17:00+10зсз4720100 0.0 10012956
20:00+7ссз2531100 0.0 1000147